Location: Bethel Church
(38.0159°N, 88.7292°W)
Time: 08:14:44
(UTC+00:00)

Lacrosse 4 Rocket - Pass Details

Date: 08 December 2021
Orbit: 536 x 620 km, 68.0° (Epoch: 16 January)

Event Time Altitude Azimuth Distance (km) Brightness Sun altitude
Rises 12:21:17 0° 348° (NNW) 2,885 4.6 -7.5°
Reaches altitude 10° 12:24:07 10° 6° (N) 1,985 4.0 -7.0°
Maximum altitude 12:27:21 19° 53° (NE) 1,476 3.9 -6.4°
Drops below altitude 10° 12:30:34 10° 99° (E) 1,985 5.7 -5.8°
Sets 12:33:23 0° 117° (ESE) 2,886 8.0 -5.3°
